Time,TemperatureF,DewpointF,PressureIn,WindDirection,WindDirectionDegrees,WindSpeedMPH,WindSpeedGustMPH,Humidity,HourlyPrecipIn,Conditions,Clouds,dailyrainin,SoftwareType,DateUTC
2013-04-27 00:01:00,54.0,51.4,30.14,East,85,1.0,11.0,91,0.00,,,0.00,Wunderground v.1.15,2013-04-27 07:01:00,
2013-04-27 00:11:00,54.4,51.8,30.14,ENE,68,2.0,11.0,91,0.00,,,0.00,Wunderground v.1.15,2013-04-27 07:11:00,
2013-04-27 00:16:00,53.6,50.4,30.14,East,98,2.0,2.0,89,0.00,,,0.00,Wunderground v.1.15,2013-04-27 07:16:00,
2013-04-27 00:26:00,53.0,50.7,30.14,NE,49,3.0,11.0,92,0.00,,,0.00,Wunderground v.1.15,2013-04-27 07:26:00,
2013-04-27 00:31:00,53.4,51.1,30.14,NE,36,3.0,11.0,92,0.00,,,0.00,Wunderground v.1.15,2013-04-27 07:31:00,
2013-04-27 00:41:00,53.8,51.5,30.14,NE,35,1.0,11.0,92,0.00,,,0.00,Wunderground v.1.15,2013-04-27 07:41:00,
2013-04-27 00:51:00,53.8,51.5,30.14,ENE,63,2.0,11.0,92,0.00,,,0.00,Wunderground v.1.15,2013-04-27 07:51:00,
2013-04-27 00:56:00,52.8,49.9,30.14,ESE,107,1.0,1.0,90,0.00,,,0.00,Wunderground v.1.15,2013-04-27 07:56:00,
2013-04-27 01:06:00,52.2,49.9,30.14,NE,43,1.0,11.0,92,0.00,,,0.00,Wunderground v.1.15,2013-04-27 08:06:00,
2013-04-27 01:11:00,52.7,50.4,30.14,NE,44,1.0,11.0,92,0.00,,,0.00,Wunderground v.1.15,2013-04-27 08:11:00,
2013-04-27 01:21:00,52.2,49.7,30.14,SE,139,0.0,11.0,91,0.00,,,0.00,Wunderground v.1.15,2013-04-27 08:21:00,
2013-04-27 01:31:00,51.4,49.2,30.14,SE,125,1.0,11.0,92,0.00,,,0.00,Wunderground v.1.15,2013-04-27 08:31:00,
2013-04-27 01:41:00,50.7,48.5,30.14,SSW,207,0.0,11.0,92,0.00,,,0.00,Wunderground v.1.15,2013-04-27 08:41:00,
2013-04-27 01:51:00,50.5,48.3,30.14,SSW,210,0.0,11.0,92,0.00,,,0.00,Wunderground v.1.15,2013-04-27 08:51:00,
2013-04-27 01:56:00,50.8,48.8,30.14,SW,232,1.0,11.0,93,0.00,,,0.00,Wunderground v.1.15,2013-04-27 08:56:00,
2013-04-27 02:06:00,51.1,49.1,30.14,SSW,207,0.0,11.0,93,0.00,,,0.00,Wunderground v.1.15,2013-04-27 09:06:00,
2013-04-27 02:16:00,50.5,48.3,30.14,SSW,207,0.0,11.0,92,0.00,,,0.00,Wunderground v.1.15,2013-04-27 09:16:00,
2013-04-27 02:21:00,50.4,48.5,30.14,SSW,207,0.0,11.0,93,0.00,,,0.00,Wunderground v.1.15,2013-04-27 09:21:00,
2013-04-27 02:31:00,50.1,47.9,30.14,ESE,117,0.0,11.0,92,0.00,,,0.00,Wunderground v.1.15,2013-04-27 09:31:00,
2013-04-27 02:36:00,49.5,47.3,30.14,ESE,117,0.0,11.0,92,0.00,,,0.00,Wunderground v.1.15,2013-04-27 09:36:00,
2013-04-27 02:46:00,49.8,48.1,30.14,SW,218,0.0,11.0,94,0.00,,,0.00,Wunderground v.1.15,2013-04-27 09:46:00,
2013-04-27 02:51:00,50.2,48.5,30.13,WSW,243,0.0,11.0,94,0.00,,,0.00,Wunderground v.1.15,2013-04-27 09:51:00,
2013-04-27 03:01:00,49.1,46.9,30.13,WSW,243,0.0,11.0,92,0.00,,,0.00,Wunderground v.1.15,2013-04-27 10:01:00,
2013-04-27 03:11:00,48.7,46.8,30.13,ESE,106,0.0,11.0,93,0.00,,,0.00,Wunderground v.1.15,2013-04-27 10:11:00,
2013-04-27 03:16:00,49.2,47.5,30.13,East,89,0.0,11.0,94,0.00,,,0.00,Wunderground v.1.15,2013-04-27 10:16:00,
2013-04-27 03:26:00,50.1,48.4,30.13,ENE,72,0.0,11.0,94,0.00,,,0.00,Wunderground v.1.15,2013-04-27 10:26:00,
2013-04-27 03:31:00,50.4,48.7,30.13,ENE,63,0.0,11.0,94,0.00,,,0.00,Wunderground v.1.15,2013-04-27 10:31:00,
2013-04-27 03:41:00,49.9,47.7,30.13,ENE,60,2.0,11.0,92,0.00,,,0.00,Wunderground v.1.15,2013-04-27 10:41:00,
2013-04-27 03:51:00,49.6,47.7,30.13,NE,49,1.0,11.0,93,0.00,,,0.00,Wunderground v.1.15,2013-04-27 10:51:00,
2013-04-27 04:01:00,50.2,48.3,30.13,ENE,70,1.0,11.0,93,0.00,,,0.00,Wunderground v.1.15,2013-04-27 11:01:00,
2013-04-27 04:11:00,48.9,46.7,30.13,East,87,0.0,11.0,92,0.00,,,0.00,Wunderground v.1.15,2013-04-27 11:11:00,
2013-04-27 04:21:00,49.5,47.8,30.13,ESE,120,1.0,11.0,94,0.00,,,0.00,Wunderground v.1.15,2013-04-27 11:21:00,
2013-04-27 04:31:00,48.5,46.6,30.13,ENE,76,1.0,2.0,93,0.00,,,0.00,Wunderground v.1.15,2013-04-27 11:31:00,
2013-04-27 04:41:00,48.1,45.9,30.13,ESE,107,2.0,11.0,92,0.00,,,0.00,Wunderground v.1.15,2013-04-27 11:41:00,
2013-04-27 04:51:00,48.0,46.4,30.13,ENE,64,1.0,11.0,94,0.00,,,0.00,Wunderground v.1.15,2013-04-27 11:51:00,
2013-04-27 05:01:00,49.1,47.7,30.13,ENE,61,2.0,11.0,95,0.00,,,0.00,Wunderground v.1.15,2013-04-27 12:01:00,
2013-04-27 05:06:00,48.9,46.7,30.12,ENE,70,2.0,11.0,92,0.00,,,0.00,Wunderground v.1.15,2013-04-27 12:06:00,
2013-04-27 05:16:00,48.1,45.9,30.13,NE,49,2.0,11.0,92,0.00,,,0.00,Wunderground v.1.15,2013-04-27 12:16:00,
2013-04-27 05:26:00,47.8,45.9,30.12,ENE,68,2.0,11.0,93,0.00,,,0.00,Wunderground v.1.15,2013-04-27 12:26:00,
2013-04-27 05:31:00,48.6,47.0,30.12,NE,53,2.0,11.0,94,0.00,,,0.00,Wunderground v.1.15,2013-04-27 12:31:00,
2013-04-27 05:41:00,48.4,46.2,30.13,East,79,2.0,11.0,92,0.00,,,0.00,Wunderground v.1.15,2013-04-27 12:41:00,
2013-04-27 05:46:00,48.9,47.2,30.13,ENE,77,3.0,11.0,94,0.00,,,0.00,Wunderground v.1.15,2013-04-27 12:46:00,
2013-04-27 05:56:00,48.4,45.9,30.13,SSE,160,3.0,11.0,91,0.00,,,0.00,Wunderground v.1.15,2013-04-27 12:56:00,
2013-04-27 06:01:00,47.7,45.5,30.13,East,82,3.0,11.0,92,0.00,,,0.00,Wunderground v.1.15,2013-04-27 13:01:00,
2013-04-27 06:11:00,47.6,45.7,30.13,ESE,123,2.0,11.0,93,0.00,,,0.00,Wunderground v.1.15,2013-04-27 13:11:00,
2013-04-27 06:16:00,47.3,45.4,30.13,ESE,123,1.0,1.0,93,0.00,,,0.00,Wunderground v.1.15,2013-04-27 13:16:00,
2013-04-27 06:26:00,48.1,46.5,30.13,ENE,60,1.0,11.0,94,0.00,,,0.00,Wunderground v.1.15,2013-04-27 13:26:00,
2013-04-27 06:31:00,48.5,46.9,30.13,ENE,63,1.0,11.0,94,0.00,,,0.00,Wunderground v.1.15,2013-04-27 13:31:00,
2013-04-27 06:41:00,49.0,47.1,30.14,NE,51,1.0,11.0,93,0.00,,,0.00,Wunderground v.1.15,2013-04-27 13:41:00,
2013-04-27 06:51:00,48.8,46.6,30.14,ESE,107,1.0,11.0,92,0.00,,,0.00,Wunderground v.1.15,2013-04-27 13:51:00,
2013-04-27 07:01:00,49.7,47.8,30.14,East,85,0.0,11.0,93,0.00,,,0.00,Wunderground v.1.15,2013-04-27 14:01:00,
2013-04-27 07:11:00,50.8,48.6,30.14,NE,55,0.0,11.0,92,0.00,,,0.00,Wunderground v.1.15,2013-04-27 14:11:00,
2013-04-27 07:16:00,51.5,49.0,30.14,ENE,66,0.0,11.0,91,0.00,,,0.00,Wunderground v.1.15,2013-04-27 14:16:00,
2013-04-27 07:26:00,52.5,49.7,30.14,ESE,104,2.0,11.0,90,0.00,,,0.00,Wunderground v.1.15,2013-04-27 14:26:00,
2013-04-27 07:36:00,53.9,50.7,30.14,East,99,1.0,1.0,89,0.00,,,0.00,Wunderground v.1.15,2013-04-27 14:36:00,
2013-04-27 07:41:00,54.9,51.1,30.14,NE,43,1.0,11.0,87,0.00,,,0.00,Wunderground v.1.15,2013-04-27 14:41:00,
2013-04-27 07:51:00,56.4,51.3,30.14,ENE,70,2.0,11.0,83,0.00,,,0.00,Wunderground v.1.15,2013-04-27 14:51:00,
2013-04-27 07:56:00,57.0,51.2,30.14,SE,133,2.0,2.0,81,0.00,,,0.00,Wunderground v.1.15,2013-04-27 14:56:00,
2013-04-27 08:06:00,59.0,51.8,30.14,NNE,30,1.0,11.0,77,0.00,,,0.00,Wunderground v.1.15,2013-04-27 15:06:00,
2013-04-27 08:11:00,59.4,50.7,30.13,NE,49,2.0,11.0,73,0.00,,,0.00,Wunderground v.1.15,2013-04-27 15:11:00,
2013-04-27 08:21:00,61.4,53.0,30.13,ESE,117,1.0,11.0,74,0.00,,,0.00,Wunderground v.1.15,2013-04-27 15:21:00,
2013-04-27 08:26:00,62.8,52.9,30.13,SSW,210,0.0,11.0,70,0.00,,,0.00,Wunderground v.1.15,2013-04-27 15:26:00,
2013-04-27 08:36:00,63.9,52.7,30.13,East,97,1.0,11.0,67,0.00,,,0.00,Wunderground v.1.15,2013-04-27 15:36:00,
2013-04-27 08:41:00,64.5,53.7,30.12,SSW,194,1.0,11.0,68,0.00,,,0.00,Wunderground v.1.15,2013-04-27 15:41:00,
2013-04-27 08:51:00,64.5,52.5,30.12,SSW,210,2.0,11.0,65,0.00,,,0.00,Wunderground v.1.15,2013-04-27 15:51:00,
2013-04-27 08:56:00,64.7,52.7,30.12,SSW,207,2.0,11.0,65,0.00,,,0.00,Wunderground v.1.15,2013-04-27 15:56:00,
2013-04-27 09:06:00,64.9,52.4,30.12,SW,224,3.0,11.0,64,0.00,,,0.00,Wunderground v.1.15,2013-04-27 16:06:00,
2013-04-27 09:11:00,65.3,52.8,30.12,SW,217,4.0,11.0,64,0.00,,,0.00,Wunderground v.1.15,2013-04-27 16:11:00,
2013-04-27 09:21:00,65.7,53.6,30.11,SW,229,5.0,7.0,65,0.00,,,0.00,Wunderground v.1.15,2013-04-27 16:21:00,
2013-04-27 09:31:00,66.6,54.5,30.11,WSW,250,6.0,11.0,65,0.00,,,0.00,Wunderground v.1.15,2013-04-27 16:31:00,
2013-04-27 09:41:00,67.0,54.8,30.11,West,276,6.0,11.0,65,0.00,,,0.00,Wunderground v.1.15,2013-04-27 16:41:00,
2013-04-27 09:51:00,67.2,54.6,30.11,WSW,243,7.0,11.0,64,0.00,,,0.00,Wunderground v.1.15,2013-04-27 16:51:00,
2013-04-27 10:01:00,68.1,54.1,30.11,WSW,253,8.0,8.0,61,0.00,,,0.00,Wunderground v.1.15,2013-04-27 17:01:00,
2013-04-27 10:06:00,68.3,53.9,30.11,SW,229,9.0,9.0,60,0.00,,,0.00,Wunderground v.1.15,2013-04-27 17:06:00,
2013-04-27 10:16:00,68.8,54.8,30.11,SW,215,9.0,9.0,61,0.00,,,0.00,Wunderground v.1.15,2013-04-27 17:16:00,
2013-04-27 10:21:00,69.1,55.1,30.11,SSW,204,9.0,11.0,61,0.00,,,0.00,Wunderground v.1.15,2013-04-27 17:21:00,
2013-04-27 10:31:00,70.7,55.7,30.11,SW,225,9.0,11.0,59,0.00,,,0.00,Wunderground v.1.15,2013-04-27 17:31:00,
2013-04-27 10:41:00,71.0,55.9,30.11,WNW,288,9.0,11.0,59,0.00,,,0.00,Wunderground v.1.15,2013-04-27 17:41:00,
2013-04-27 10:51:00,71.2,55.2,30.11,SW,225,8.0,11.0,57,0.00,,,0.00,Wunderground v.1.15,2013-04-27 17:51:00,
2013-04-27 11:01:00,71.3,56.2,30.11,WSW,239,9.0,11.0,59,0.00,,,0.00,Wunderground v.1.15,2013-04-27 18:01:00,
2013-04-27 11:11:00,71.2,56.6,30.10,West,273,10.0,14.0,60,0.00,,,0.00,Wunderground v.1.15,2013-04-27 18:11:00,
2013-04-27 11:16:00,71.0,56.9,30.11,SW,232,11.0,11.0,61,0.00,,,0.00,Wunderground v.1.15,2013-04-27 18:16:00,
2013-04-27 11:26:00,71.2,56.6,30.10,SW,215,11.0,11.0,60,0.00,,,0.00,Wunderground v.1.15,2013-04-27 18:26:00,
2013-04-27 11:31:00,71.3,56.7,30.10,WSW,258,11.0,13.0,60,0.00,,,0.00,Wunderground v.1.15,2013-04-27 18:31:00,
2013-04-27 11:41:00,71.2,56.1,30.10,WSW,250,12.0,13.0,59,0.00,,,0.00,Wunderground v.1.15,2013-04-27 18:41:00,
2013-04-27 11:46:00,71.6,57.0,30.10,West,259,11.0,11.0,60,0.00,,,0.00,Wunderground v.1.15,2013-04-27 18:46:00,
2013-04-27 11:56:00,71.5,56.4,30.09,WSW,246,11.0,12.0,59,0.00,,,0.00,Wunderground v.1.15,2013-04-27 18:56:00,
2013-04-27 12:01:00,72.1,57.0,30.09,West,260,11.0,12.0,59,0.00,,,0.00,Wunderground v.1.15,2013-04-27 19:01:00,
2013-04-27 12:11:00,71.9,54.9,30.09,West,278,13.0,16.0,55,0.00,,,0.00,Wunderground v.1.15,2013-04-27 19:11:00,
2013-04-27 12:21:00,72.2,55.1,30.08,WSW,253,13.0,13.0,55,0.00,,,0.00,Wunderground v.1.15,2013-04-27 19:21:00,
2013-04-27 12:31:00,72.6,56.0,30.08,SW,235,12.0,17.0,56,0.00,,,0.00,Wunderground v.1.15,2013-04-27 19:31:00,
2013-04-27 12:41:00,72.5,54.4,30.07,WSW,243,12.0,12.0,53,0.00,,,0.00,Wunderground v.1.15,2013-04-27 19:41:00,
2013-04-27 12:46:00,72.8,55.2,30.07,SW,215,12.0,12.0,54,0.00,,,0.00,Wunderground v.1.15,2013-04-27 19:46:00,
2013-04-27 12:56:00,72.8,55.2,30.07,WSW,245,12.0,13.0,54,0.00,,,0.00,Wunderground v.1.15,2013-04-27 19:56:00,
2013-04-27 13:06:00,73.9,56.2,30.06,WSW,249,11.0,14.0,54,0.00,,,0.00,Wunderground v.1.15,2013-04-27 20:06:00,
2013-04-27 13:11:00,73.1,55.5,30.06,West,259,12.0,14.0,54,0.00,,,0.00,Wunderground v.1.15,2013-04-27 20:11:00,
2013-04-27 13:21:00,73.0,55.9,30.06,SW,235,12.0,17.0,55,0.00,,,0.00,Wunderground v.1.15,2013-04-27 20:21:00,
2013-04-27 13:26:00,72.9,55.8,30.05,WSW,253,13.0,13.0,55,0.00,,,0.00,Wunderground v.1.15,2013-04-27 20:26:00,
2013-04-27 13:36:00,72.6,56.0,30.05,WSW,256,13.0,14.0,56,0.00,,,0.00,Wunderground v.1.15,2013-04-27 20:36:00,
2013-04-27 13:41:00,73.0,55.9,30.05,West,264,12.0,14.0,55,0.00,,,0.00,Wunderground v.1.15,2013-04-27 20:41:00,
2013-04-27 13:51:00,73.3,55.6,30.05,West,262,11.0,14.0,54,0.00,,,0.00,Wunderground v.1.15,2013-04-27 20:51:00,
2013-04-27 13:56:00,73.3,55.6,30.04,West,276,11.0,11.0,54,0.00,,,0.00,Wunderground v.1.15,2013-04-27 20:56:00,
2013-04-27 14:06:00,73.6,55.9,30.04,West,267,10.0,10.0,54,0.00,,,0.00,Wunderground v.1.15,2013-04-27 21:06:00,
2013-04-27 14:11:00,73.1,55.5,30.03,West,276,10.0,11.0,54,0.00,,,0.00,Wunderground v.1.15,2013-04-27 21:11:00,
2013-04-27 14:21:00,73.4,55.7,30.03,WSW,255,11.0,11.0,54,0.00,,,0.00,Wunderground v.1.15,2013-04-27 21:21:00,
2013-04-27 14:26:00,74.2,55.4,30.02,WNW,284,10.0,10.0,52,0.00,,,0.00,Wunderground v.1.15,2013-04-27 21:26:00,
2013-04-27 14:36:00,74.5,55.7,30.02,West,277,10.0,11.0,52,0.00,,,0.00,Wunderground v.1.15,2013-04-27 21:36:00,
2013-04-27 14:41:00,73.6,55.9,30.02,West,274,11.0,11.0,54,0.00,,,0.00,Wunderground v.1.15,2013-04-27 21:41:00,
2013-04-27 14:51:00,72.9,56.3,30.02,WSW,246,13.0,16.0,56,0.00,,,0.00,Wunderground v.1.15,2013-04-27 21:51:00,
2013-04-27 14:56:00,73.1,57.0,30.01,West,273,13.0,13.0,57,0.00,,,0.00,Wunderground v.1.15,2013-04-27 21:56:00,
2013-04-27 15:06:00,72.1,56.5,30.01,WSW,253,13.0,13.0,58,0.00,,,0.00,Wunderground v.1.15,2013-04-27 22:06:00,
2013-04-27 15:16:00,71.8,56.2,30.01,West,274,12.0,12.0,58,0.00,,,0.00,Wunderground v.1.15,2013-04-27 22:16:00,
2013-04-27 15:26:00,71.1,56.0,30.00,WSW,253,13.0,13.0,59,0.00,,,0.00,Wunderground v.1.15,2013-04-27 22:26:00,
2013-04-27 15:36:00,71.7,56.1,30.00,West,270,11.0,11.0,58,0.00,,,0.00,Wunderground v.1.15,2013-04-27 22:36:00,
2013-04-27 15:41:00,71.6,56.0,30.00,WSW,256,11.0,11.0,58,0.00,,,0.00,Wunderground v.1.15,2013-04-27 22:41:00,
2013-04-27 15:51:00,71.6,55.6,30.00,WSW,248,11.0,13.0,57,0.00,,,0.00,Wunderground v.1.15,2013-04-27 22:51:00,
2013-04-27 16:01:00,71.5,55.9,29.99,West,259,11.0,12.0,58,0.00,,,0.00,Wunderground v.1.15,2013-04-27 23:01:00,
2013-04-27 16:11:00,71.3,55.8,29.99,WNW,283,11.0,11.0,58,0.00,,,0.00,Wunderground v.1.15,2013-04-27 23:11:00,
2013-04-27 16:21:00,70.6,55.6,29.99,WSW,256,11.0,14.0,59,0.00,,,0.00,Wunderground v.1.15,2013-04-27 23:21:00,
2013-04-27 16:31:00,70.3,56.2,29.99,West,269,11.0,15.0,61,0.00,,,0.00,Wunderground v.1.15,2013-04-27 23:31:00,
2013-04-27 16:41:00,70.0,55.5,29.99,West,259,10.0,11.0,60,0.00,,,0.00,Wunderground v.1.15,2013-04-27 23:41:00,
2013-04-27 16:51:00,69.6,56.0,29.99,West,278,10.0,12.0,62,0.00,,,0.00,Wunderground v.1.15,2013-04-27 23:51:00,
2013-04-27 17:01:00,69.2,56.1,29.98,West,273,10.0,11.0,63,0.00,,,0.00,Wunderground v.1.15,2013-04-28 00:01:00,
2013-04-27 17:06:00,69.2,56.1,29.98,West,280,10.0,10.0,63,0.00,,,0.00,Wunderground v.1.15,2013-04-28 00:06:00,
2013-04-27 17:16:00,68.5,55.8,29.98,WSW,240,11.0,12.0,64,0.00,,,0.00,Wunderground v.1.15,2013-04-28 00:16:00,
2013-04-27 17:21:00,68.1,55.5,29.98,West,262,11.0,12.0,64,0.00,,,0.00,Wunderground v.1.15,2013-04-28 00:21:00,
2013-04-27 17:31:00,67.8,56.0,29.99,West,259,10.0,11.0,66,0.00,,,0.00,Wunderground v.1.15,2013-04-28 00:31:00,
2013-04-27 17:41:00,67.5,55.3,29.98,West,262,9.0,12.0,65,0.00,,,0.00,Wunderground v.1.15,2013-04-28 00:41:00,
2013-04-27 17:51:00,67.4,55.2,29.99,WSW,250,9.0,15.0,65,0.00,,,0.00,Wunderground v.1.15,2013-04-28 00:51:00,
2013-04-27 18:01:00,66.6,55.3,29.98,West,259,10.0,11.0,67,0.00,,,0.00,Wunderground v.1.15,2013-04-28 01:01:00,
2013-04-27 18:06:00,66.6,55.3,29.98,WSW,253,9.0,11.0,67,0.00,,,0.00,Wunderground v.1.15,2013-04-28 01:06:00,
2013-04-27 18:16:00,66.4,55.5,29.98,WNW,287,8.0,8.0,68,0.00,,,0.00,Wunderground v.1.15,2013-04-28 01:16:00,
2013-04-27 18:21:00,66.3,55.0,29.98,West,274,7.0,11.0,67,0.00,,,0.00,Wunderground v.1.15,2013-04-28 01:21:00,
2013-04-27 18:31:00,66.3,55.4,29.98,West,264,6.0,8.0,68,0.00,,,0.00,Wunderground v.1.15,2013-04-28 01:31:00,
2013-04-27 18:36:00,66.0,55.1,29.98,SW,219,6.0,6.0,68,0.00,,,0.00,Wunderground v.1.15,2013-04-28 01:36:00,
2013-04-27 18:46:00,65.8,55.3,29.98,West,269,5.0,11.0,69,0.00,,,0.00,Wunderground v.1.15,2013-04-28 01:46:00,
2013-04-27 18:51:00,65.6,55.2,29.98,West,267,4.0,11.0,69,0.00,,,0.00,Wunderground v.1.15,2013-04-28 01:51:00,
2013-04-27 19:01:00,64.7,55.1,29.98,West,259,5.0,11.0,71,0.00,,,0.00,Wunderground v.1.15,2013-04-28 02:01:00,
2013-04-27 19:06:00,64.4,55.2,29.98,WSW,256,5.0,11.0,72,0.00,,,0.00,Wunderground v.1.15,2013-04-28 02:06:00,
2013-04-27 19:16:00,63.4,55.0,29.98,WSW,245,6.0,6.0,74,0.00,,,0.00,Wunderground v.1.15,2013-04-28 02:16:00,
2013-04-27 19:26:00,62.6,54.9,29.98,WSW,253,5.0,11.0,76,0.00,,,0.00,Wunderground v.1.15,2013-04-28 02:26:00,
2013-04-27 19:31:00,62.1,54.8,29.98,West,267,5.0,11.0,77,0.00,,,0.00,Wunderground v.1.15,2013-04-28 02:31:00,
2013-04-27 19:41:00,61.4,54.8,29.98,SW,229,5.0,11.0,79,0.00,,,0.00,Wunderground v.1.15,2013-04-28 02:41:00,
2013-04-27 19:51:00,61.1,54.9,29.98,WSW,240,5.0,11.0,80,0.00,,,0.00,Wunderground v.1.15,2013-04-28 02:51:00,
2013-04-27 20:01:00,60.6,54.7,29.98,WSW,246,3.0,11.0,81,0.00,,,0.00,Wunderground v.1.15,2013-04-28 03:01:00,
2013-04-27 20:11:00,59.9,54.4,29.98,WSW,256,4.0,11.0,82,0.00,,,0.00,Wunderground v.1.15,2013-04-28 03:11:00,
2013-04-27 20:21:00,59.8,54.6,29.98,SSW,210,4.0,11.0,83,0.00,,,0.00,Wunderground v.1.15,2013-04-28 03:21:00,
2013-04-27 20:31:00,59.3,54.5,29.99,SW,228,3.0,11.0,84,0.00,,,0.00,Wunderground v.1.15,2013-04-28 03:31:00,
2013-04-27 20:41:00,59.0,54.5,29.99,SSW,203,4.0,11.0,85,0.00,,,0.00,Wunderground v.1.15,2013-04-28 03:41:00,
2013-04-27 20:46:00,58.8,54.3,29.99,SSW,202,4.0,4.0,85,0.00,,,0.00,Wunderground v.1.15,2013-04-28 03:46:00,
2013-04-27 20:56:00,58.3,54.1,29.99,SSE,160,3.0,3.0,86,0.00,,,0.00,Wunderground v.1.15,2013-04-28 03:56:00,
2013-04-27 21:01:00,57.9,53.7,29.99,SSW,195,3.0,11.0,86,0.00,,,0.00,Wunderground v.1.15,2013-04-28 04:01:00,
2013-04-27 21:06:00,57.8,54.0,29.99,SW,222,2.0,2.0,87,0.00,,,0.00,Wunderground v.1.15,2013-04-28 04:06:00,
2013-04-27 21:16:00,57.9,54.4,30.00,WSW,243,2.0,11.0,88,0.00,,,0.00,Wunderground v.1.15,2013-04-28 04:16:00,
2013-04-27 21:21:00,57.8,54.0,30.00,SW,226,1.0,11.0,87,0.00,,,0.00,Wunderground v.1.15,2013-04-28 04:21:00,
2013-04-27 21:31:00,56.8,53.0,30.00,SE,139,1.0,11.0,87,0.00,,,0.00,Wunderground v.1.15,2013-04-28 04:31:00,
2013-04-27 21:41:00,56.2,52.7,30.00,SW,215,1.0,11.0,88,0.00,,,0.00,Wunderground v.1.15,2013-04-28 04:41:00,
2013-04-27 21:46:00,56.2,53.0,30.00,SW,215,1.0,11.0,89,0.00,,,0.00,Wunderground v.1.15,2013-04-28 04:46:00,
2013-04-27 21:56:00,55.7,52.2,30.00,SSW,211,1.0,11.0,88,0.00,,,0.00,Wunderground v.1.15,2013-04-28 04:56:00,
2013-04-27 22:01:00,55.4,52.2,30.00,SSE,150,1.0,11.0,89,0.00,,,0.00,Wunderground v.1.15,2013-04-28 05:01:00,
2013-04-27 22:11:00,55.0,52.1,30.00,SW,221,1.0,11.0,90,0.00,,,0.00,Wunderground v.1.15,2013-04-28 05:11:00,
2013-04-27 22:16:00,55.0,52.1,30.00,SSW,212,1.0,1.0,90,0.00,,,0.00,Wunderground v.1.15,2013-04-28 05:16:00,
2013-04-27 22:26:00,55.0,52.1,30.00,WSW,250,1.0,1.0,90,0.00,,,0.00,Wunderground v.1.15,2013-04-28 05:26:00,
2013-04-27 22:31:00,54.4,51.2,30.00,SE,132,1.0,2.0,89,0.00,,,0.00,Wunderground v.1.15,2013-04-28 05:31:00,
2013-04-27 22:41:00,54.3,51.7,30.00,SSW,197,1.0,11.0,91,0.00,,,0.00,Wunderground v.1.15,2013-04-28 05:41:00,
2013-04-27 22:46:00,54.4,51.8,30.00,SW,225,0.0,11.0,91,0.00,,,0.00,Wunderground v.1.15,2013-04-28 05:46:00,
2013-04-27 22:56:00,53.7,50.8,30.00,SE,131,1.0,1.0,90,0.00,,,0.00,Wunderground v.1.15,2013-04-28 05:56:00,
2013-04-27 23:01:00,53.7,51.1,30.00,SE,145,1.0,11.0,91,0.00,,,0.00,Wunderground v.1.15,2013-04-28 06:01:00,
2013-04-27 23:11:00,53.8,51.2,30.00,ESE,113,0.0,11.0,91,0.00,,,0.00,Wunderground v.1.15,2013-04-28 06:11:00,
2013-04-27 23:21:00,53.4,50.8,30.00,ESE,111,0.0,11.0,91,0.00,,,0.00,Wunderground v.1.15,2013-04-28 06:21:00,
2013-04-27 23:26:00,53.6,51.3,30.00,East,79,0.0,11.0,92,0.00,,,0.00,Wunderground v.1.15,2013-04-28 06:26:00,
2013-04-27 23:36:00,54.3,52.0,30.00,ESE,115,1.0,11.0,92,0.00,,,0.00,Wunderground v.1.15,2013-04-28 06:36:00,
2013-04-27 23:41:00,53.3,50.4,30.00,SE,131,1.0,11.0,90,0.00,,,0.00,Wunderground v.1.15,2013-04-28 06:41:00,
2013-04-27 23:51:00,52.8,50.2,30.00,SE,146,1.0,11.0,91,0.00,,,0.00,Wunderground v.1.15,2013-04-28 06:51:00,
2013-04-27 23:56:00,52.5,49.9,30.00,SE,145,0.0,11.0,91,0.00,,,0.00,Wunderground v.1.15,2013-04-28 06:56:00,